TimeCDT,TemperatureF,Dew PointF,Humidity,Sea Level PressureIn,VisibilityMPH,Wind Direction,Wind SpeedMPH,Gust SpeedMPH,PrecipitationIn,Events,Conditions,WindDirDegrees,DateUTC
12:53 AM,54.0,42.1,64,30.08,10.0,NNE,3.5,-,N/A,,Clear,30,2013-10-23 05:53:00
1:53 AM,52.0,42.1,69,30.08,10.0,NE,3.5,-,N/A,,Clear,40,2013-10-23 06:53:00
2:53 AM,46.0,42.1,86,30.09,10.0,West,4.6,-,N/A,,Clear,270,2013-10-23 07:53:00
3:53 AM,46.0,42.1,86,30.09,4.0,Calm,Calm,-,N/A,,Clear,0,2013-10-23 08:53:00
4:53 AM,46.9,41.0,80,30.09,9.0,Calm,Calm,-,N/A,,Clear,0,2013-10-23 09:53:00
5:53 AM,46.9,41.0,80,30.09,10.0,ENE,3.5,-,N/A,,Clear,70,2013-10-23 10:53:00
6:53 AM,48.0,41.0,77,30.09,10.0,ESE,3.5,-,N/A,,Clear,110,2013-10-23 11:53:00
7:53 AM,45.0,39.9,82,30.12,10.0,East,6.9,-,N/A,,Clear,90,2013-10-23 12:53:00
8:53 AM,48.9,44.1,83,30.13,10.0,East,4.6,-,N/A,,Clear,90,2013-10-23 13:53:00
9:53 AM,53.1,45.0,74,30.12,10.0,East,8.1,-,N/A,,Clear,100,2013-10-23 14:53:00
10:53 AM,61.0,48.0,62,30.10,10.0,SE,5.8,-,N/A,,Clear,130,2013-10-23 15:53:00
11:53 AM,68.0,43.0,40,30.09,10.0,SSW,11.5,-,N/A,,Clear,200,2013-10-23 16:53:00
12:53 PM,72.0,42.1,34,30.06,10.0,SW,15.0,-,N/A,,Clear,220,2013-10-23 17:53:00
1:53 PM,75.9,39.0,26,30.03,4.0,WSW,10.4,-,N/A,,Haze,240,2013-10-23 18:53:00
2:04 PM,77.0,39.2,26,30.05,1.8,WSW,10.4,-,N/A,,Haze,250,2013-10-23 19:04:00
2:19 PM,78.8,39.2,24,30.04,2.0,West,15.0,18.4,N/A,,Haze,260,2013-10-23 19:19:00
2:26 PM,78.8,39.2,24,30.04,1.2,West,16.1,-,N/A,,Haze,270,2013-10-23 19:26:00
2:53 PM,80.1,39.9,24,30.00,1.2,WSW,13.8,21.9,N/A,,Haze,240,2013-10-23 19:53:00
3:53 PM,82.0,36.0,19,29.98,1.2,WSW,20.7,26.5,N/A,,Haze,250,2013-10-23 20:53:00
4:53 PM,82.9,35.1,18,29.97,1.0,West,17.3,-,N/A,,Haze,260,2013-10-23 21:53:00
5:53 PM,80.1,35.1,20,29.97,1.0,West,13.8,-,N/A,,Haze,270,2013-10-23 22:53:00
6:53 PM,72.0,37.0,28,29.97,2.0,WSW,11.5,-,N/A,,Haze,240,2013-10-23 23:53:00
7:05 PM,69.8,37.4,31,29.99,4.0,SW,10.4,-,N/A,,Haze,230,2013-10-24 00:05:00
7:53 PM,66.0,37.0,34,29.99,7.0,SW,10.4,-,N/A,,Clear,230,2013-10-24 00:53:00
8:53 PM,63.0,37.9,40,30.00,10.0,SSW,11.5,-,N/A,,Clear,200,2013-10-24 01:53:00
9:53 PM,62.1,37.0,39,30.03,6.0,WNW,8.1,-,N/A,,Haze,300,2013-10-24 02:53:00
10:53 PM,57.0,46.9,69,30.06,10.0,NNE,10.4,-,N/A,,Clear,20,2013-10-24 03:53:00
11:53 PM,57.9,48.0,70,30.07,10.0,ENE,11.5,-,N/A,,Clear,60,2013-10-24 04:53:00